Location: Baia Mare
(47.6567°N, 23.5850°E)
Time: 09:20:51
(UTC+03:00)

ISS - Pass Details

Date: 22 July 2018
Orbit: 402 x 408 km, 51.6° (Epoch: 16 July)

Event Time Altitude Azimuth Distance (km) Brightness Sun altitude
Rises 04:44:55 0° 286° (WNW) 2,330 -0.3 -9.5°
Reaches altitude 10° 04:47:32 10° 264° (W) 1,466 -1.5 -9.2°
Maximum altitude 04:49:40 16° 223° (SW) 1,139 -2.2 -8.9°
Drops below altitude 10° 04:51:49 10° 182° (S) 1,460 -1.4 -8.6°
Sets 04:54:24 0° 160° (SSE) 2,316 -0.2 -8.3°
